TimeEST,TemperatureF,Dew PointF,Humidity,Sea Level PressureIn,VisibilityMPH,Wind Direction,Wind SpeedMPH,Gust SpeedMPH,PrecipitationIn,Events,Conditions,WindDirDegrees,DateUTC
12:15 AM,27.5,23.5,85,29.86,10.0,NNW,6.9,-,N/A,Snow,Light Snow,340,2012-12-27 05:15:00
12:34 AM,27.5,23.7,86,29.86,10.0,NNW,8.1,-,N/A,,Overcast,330,2012-12-27 05:34:00
12:55 AM,28.0,24.1,85,29.86,7.0,NW,6.9,-,N/A,Snow,Light Snow,320,2012-12-27 05:55:00
1:14 AM,28.2,24.4,86,29.86,4.0,NNW,8.1,-,N/A,Snow,Light Snow,330,2012-12-27 06:14:00
1:34 AM,28.4,24.8,86,29.86,4.0,NNW,8.1,-,N/A,Snow,Light Snow,330,2012-12-27 06:34:00
1:55 AM,28.9,25.2,86,29.87,5.0,NNW,6.9,-,N/A,Snow,Light Snow,330,2012-12-27 06:55:00
2:15 AM,29.1,25.0,85,29.88,7.0,NW,8.1,-,N/A,,Overcast,310,2012-12-27 07:15:00
2:34 AM,27.5,23.0,83,29.89,10.0,NNW,11.5,17.3,N/A,,Overcast,330,2012-12-27 07:34:00
2:55 AM,27.5,23.0,83,29.90,10.0,NW,10.4,17.3,N/A,,Overcast,310,2012-12-27 07:55:00
3:14 AM,27.9,23.0,82,29.91,10.0,NW,8.1,-,N/A,,Overcast,320,2012-12-27 08:14:00
3:35 AM,28.2,23.2,81,29.91,10.0,NW,6.9,-,N/A,,Overcast,320,2012-12-27 08:35:00
3:54 AM,28.4,23.2,81,29.91,10.0,NNW,12.7,16.1,N/A,,Overcast,330,2012-12-27 08:54:00
4:14 AM,28.4,23.0,80,29.91,10.0,NNW,12.7,19.6,N/A,,Overcast,330,2012-12-27 09:14:00
4:54 AM,28.4,23.0,80,29.93,10.0,NNW,9.2,18.4,N/A,,Overcast,330,2012-12-27 09:54:00
5:15 AM,28.4,23.0,80,29.94,10.0,NW,8.1,-,N/A,,Overcast,310,2012-12-27 10:15:00
5:34 AM,28.4,23.0,80,-9999,10.0,NW,8.1,-,N/A,,Overcast,310,2012-12-27 10:34:00
5:54 AM,28.2,22.8,80,29.96,10.0,NW,11.5,18.4,N/A,,Overcast,320,2012-12-27 10:54:00
6:15 AM,28.4,23.0,80,29.98,10.0,NW,10.4,16.1,N/A,,Overcast,320,2012-12-27 11:15:00
6:34 AM,28.4,23.4,81,29.99,10.0,NW,10.4,16.1,N/A,,Overcast,310,2012-12-27 11:34:00
6:55 AM,28.4,23.2,81,30.00,7.0,NW,9.2,18.4,N/A,,Overcast,320,2012-12-27 11:55:00
7:15 AM,28.2,23.0,81,30.00,10.0,NNW,11.5,16.1,N/A,,Overcast,330,2012-12-27 12:15:00
7:34 AM,27.9,22.5,80,30.00,10.0,NNW,11.5,18.4,N/A,,Overcast,330,2012-12-27 12:34:00
7:55 AM,27.5,22.1,80,30.02,10.0,NNW,11.5,18.4,N/A,,Mostly Cloudy,330,2012-12-27 12:55:00
8:15 AM,27.5,22.1,80,30.02,10.0,NNW,8.1,-,N/A,,Mostly Cloudy,330,2012-12-27 13:15:00
8:35 AM,27.5,22.5,81,30.03,10.0,NW,8.1,-,N/A,,Overcast,310,2012-12-27 13:35:00
8:55 AM,28.0,22.8,81,30.04,10.0,NW,6.9,-,N/A,,Overcast,320,2012-12-27 13:55:00
9:14 AM,28.2,23.0,81,30.05,10.0,NNW,10.4,-,N/A,,Overcast,330,2012-12-27 14:14:00
9:35 AM,28.2,22.8,80,30.06,10.0,NNW,9.2,-,N/A,,Overcast,340,2012-12-27 14:35:00
9:55 AM,28.4,23.0,80,30.07,10.0,NNW,9.2,16.1,N/A,,Overcast,330,2012-12-27 14:55:00
10:14 AM,28.4,22.8,80,30.09,10.0,NNW,6.9,-,N/A,,Overcast,330,2012-12-27 15:14:00
10:35 AM,28.4,22.6,79,30.10,10.0,NNW,9.2,-,N/A,,Overcast,330,2012-12-27 15:35:00
10:54 AM,28.2,22.6,80,30.09,10.0,NNW,9.2,-,N/A,,Overcast,330,2012-12-27 15:54:00
11:15 AM,28.4,22.6,79,30.10,10.0,NW,6.9,-,N/A,,Overcast,320,2012-12-27 16:15:00
11:35 AM,28.8,22.8,78,30.09,10.0,NW,8.1,-,N/A,,Overcast,320,2012-12-27 16:35:00
11:54 AM,28.9,22.5,77,30.09,10.0,NNW,9.2,-,N/A,,Overcast,330,2012-12-27 16:54:00
12:15 PM,28.6,22.1,77,30.08,10.0,NNW,8.1,-,N/A,,Overcast,330,2012-12-27 17:15:00
12:34 PM,28.9,22.6,77,30.08,10.0,WNW,6.9,-,N/A,,Overcast,300,2012-12-27 17:34:00
12:55 PM,29.3,22.3,75,30.07,10.0,NW,6.9,-,N/A,,Overcast,320,2012-12-27 17:55:00
1:15 PM,29.7,22.5,75,30.08,10.0,NW,5.8,-,N/A,,Mostly Cloudy,310,2012-12-27 18:15:00
1:34 PM,30.2,22.3,72,30.07,10.0,NW,5.8,-,N/A,,Scattered Clouds,310,2012-12-27 18:34:00
1:55 PM,30.6,22.1,71,30.07,10.0,NW,4.6,-,N/A,,Clear,310,2012-12-27 18:55:00
2:14 PM,31.5,22.6,70,30.07,10.0,WNW,3.5,-,N/A,,Clear,300,2012-12-27 19:14:00
2:34 PM,31.6,22.6,69,30.08,10.0,West,8.1,-,N/A,,Clear,270,2012-12-27 19:34:00
2:55 PM,31.8,22.8,69,30.08,10.0,West,6.9,-,N/A,,Clear,260,2012-12-27 19:55:00
3:14 PM,32.0,22.6,68,30.07,10.0,West,4.6,-,N/A,,Clear,270,2012-12-27 20:14:00
3:35 PM,32.0,22.8,69,30.08,10.0,West,6.9,-,N/A,,Clear,270,2012-12-27 20:35:00
3:55 PM,32.2,22.8,68,30.08,10.0,West,3.5,-,N/A,,Clear,260,2012-12-27 20:55:00
4:14 PM,31.8,22.6,69,30.09,10.0,West,5.8,-,N/A,,Clear,270,2012-12-27 21:14:00
4:35 PM,31.3,22.1,69,30.10,10.0,West,5.8,-,N/A,,Clear,270,2012-12-27 21:35:00
4:54 PM,30.2,22.1,72,30.10,10.0,West,4.6,-,N/A,,Clear,260,2012-12-27 21:54:00
5:15 PM,28.9,21.9,75,30.10,10.0,WSW,3.5,-,N/A,,Clear,250,2012-12-27 22:15:00
5:35 PM,28.4,21.4,75,30.11,10.0,Calm,Calm,-,N/A,,Clear,0,2012-12-27 22:35:00
5:54 PM,27.1,21.2,78,30.11,10.0,Calm,Calm,-,N/A,,Clear,0,2012-12-27 22:54:00
6:15 PM,25.3,20.1,81,30.11,10.0,Calm,Calm,-,N/A,,Clear,0,2012-12-27 23:15:00
6:34 PM,23.4,19.2,84,30.13,10.0,Calm,Calm,-,N/A,,Clear,0,2012-12-27 23:34:00
6:54 PM,23.5,20.1,87,30.13,10.0,Calm,Calm,-,N/A,,Clear,0,2012-12-27 23:54:00
7:34 PM,20.7,18.0,89,30.15,7.0,Calm,Calm,-,N/A,,Clear,0,2012-12-28 00:34:00
7:55 PM,20.3,18.0,91,30.16,5.0,Calm,Calm,-,N/A,,Clear,0,2012-12-28 00:55:00
8:15 PM,20.1,17.6,90,30.16,4.0,Calm,Calm,-,N/A,,Clear,0,2012-12-28 01:15:00
8:34 PM,19.4,16.7,89,30.16,5.0,Calm,Calm,-,N/A,,Clear,0,2012-12-28 01:34:00
8:55 PM,19.2,16.5,89,30.16,4.0,Calm,Calm,-,N/A,,Clear,0,2012-12-28 01:55:00
9:14 PM,18.9,16.3,90,30.15,1.0,Calm,Calm,-,N/A,,Mist,0,2012-12-28 02:14:00
9:34 PM,18.0,15.4,90,30.15,1.5,Calm,Calm,-,N/A,,Mist,0,2012-12-28 02:34:00
9:55 PM,18.7,16.2,90,30.15,2.0,Calm,Calm,-,N/A,,Clear,0,2012-12-28 02:55:00
10:14 PM,18.1,15.4,89,30.15,5.0,Calm,Calm,-,N/A,,Clear,0,2012-12-28 03:14:00
10:35 PM,16.5,13.6,88,30.15,5.0,Calm,Calm,-,N/A,,Clear,0,2012-12-28 03:35:00
10:54 PM,16.3,13.6,89,30.15,4.0,Calm,Calm,-,N/A,,Clear,0,2012-12-28 03:54:00
11:14 PM,16.5,13.6,88,30.14,5.0,Calm,Calm,-,N/A,,Clear,0,2012-12-28 04:14:00
11:35 PM,17.1,14.2,88,30.15,7.0,Calm,Calm,-,N/A,,Clear,0,2012-12-28 04:35:00
11:54 PM,16.7,13.8,88,30.15,5.0,Calm,Calm,-,N/A,,Clear,0,2012-12-28 04:54:00